Regional Weather Roundup
Issued by NWS Spokane, WA

Home | Current Version | Previous Version | Text Only | Print | Product List | Glossary On
Versions: 1 2 3 4 5 6 7 8 9 10 11 12 13 14 15 16 17 18 19 20 21 22 23 24 25 26 27 28 29 30 31 32 33 34 35 36 37 38 39 40 41 42 43 44 45 46 47 48 49 50
000
NZUS01 KOTX 122200
RWROTX

Eastern Washington/Northern Idaho Roundup
National Weather Service, Spokane WA
200 PM PST TUE DEC 12 2017

Note: "fair" indicated few or no clouds below 12,000 feet with no
significant weather and/or obstructions to visibility.

...Northeast Washington and Northern Idaho Panhandle...

CITY           SKY/WX    TMP DP  RH WIND       PRES   REMARKS
Spokane Intl   CLOUDY    24  23  96 CALM      30.48F FOG
Spokane Downto CLOUDY    28  24  85 VRB3      30.52F
Coeur d Alene  CLOUDY    28  25  88 W5        30.48F WCI  23
Deer Park      CLOUDY    26  23  88 NW5       30.51F WCI  20

...Southeast Washington and southern Idaho Panhandle...

CITY           SKY/WX    TMP DP  RH WIND       PRES   REMARKS
Walla Walla    CLOUDY    30  23  75 CALM      30.55F
Pullman/Moscow PTSUNNY   29  24  82 S7        30.47F WCI  22
Lowell           N/A     38  28  67 S3        30.53F

...Columbia Basin...

CITY           SKY/WX    TMP DP  RH WIND       PRES   REMARKS
Ephrata        CLOUDY    29  21  72 SE3       30.55F
Moses Lake     CLOUDY    30  24  78 CALM      30.57F
Pasco          CLOUDY    33  25  72 SE3       30.61F
Hermiston      CLOUDY    31  25  78 CALM      30.59F
Pendleton      CLOUDY    27  22  81 SW5       30.53F WCI  22

...East Slopes Cascades...

CITY           SKY/WX    TMP DP  RH WIND       PRES   REMARKS
The Dalles     CLOUDY    35  24  64 E6        30.61F
Yakima         CLOUDY    32  24  72 CALM      30.56F
Ellensburg     CLOUDY    29  22  75 CALM      30.50F
Omak           CLOUDY    30  27  88 SW5       30.56S WCI  25
Sunnyside      CLOUDY    30  24  77 SE3       30.59F

...Southern British Columbia...

CITY           SKY/WX    TMP DP  RH WIND       PRES   REMARKS

...Western Montana...

CITY           SKY/WX    TMP DP  RH WIND       PRES   REMARKS
Kalispell      CLOUDY    26  24  92 S3        30.41F FOG
Missoula       CLOUDY    19  16  88 CALM      30.44F FOG

...Neighboring Cities...

CITY           SKY/WX    TMP DP  RH WIND       PRES   REMARKS
Seattle        PTSUNNY   45  33  63 W3        30.41F
Portland       PTSUNNY   43  28  55 VRB5      30.43F
Boise          CLOUDY    24  21  88 CALM      30.59F FOG
Great Falls    CLOUDY    50   2  14 SW18      30.16R



USA.gov is the U.S. government's official web portal to all federal, state and local government web resources and services.